When you browse on this site, cookies collect data to enhance your experience and personalize the content and advertising you see.
Visit our Privacy Policy to learn more. By continuing to use the site, you agree to this use of cookies and data.
  • în România
  • Lista ţărilor
  • Pe 7 zile
  • Temperatura apei
  • Hartă satelitară
  • Meteo pe hartă
  • Widget-uri
  • user-avatar
    Intrare

    Meteo pe oră la Christchurch

    Astăzi, 21 Iulie, Duminică

    Timp Temperatura Precipitaţii Vânt Presiune Umiditate
    00:00 +10°C° 0 mm 4 m/s 750 mmHg 97%
    01:00 +10°C° 1.8 mm 4 m/s 750 mmHg 97%
    02:00 +10°C° 1.8 mm 4 m/s 750 mmHg 97%
    03:00 +10°C° 1.8 mm 4 m/s 749 mmHg 97%
    04:00 +10°C° 0.2 mm 4 m/s 750 mmHg 96%
    05:00 +10°C° 0.2 mm 4 m/s 750 mmHg 95%
    06:00 +10°C° 0.2 mm 4 m/s 750 mmHg 94%
    07:00 +9°C° 0.1 mm 5 m/s 751 mmHg 94%
    08:00 +9°C° 0.1 mm 6 m/s 751 mmHg 95%
    09:00 +9°C° 0.1 mm 7 m/s 752 mmHg 95%
    10:00 +10°C° 0.2 mm 6 m/s 752 mmHg 93%
    11:00 +10°C° 0.2 mm 6 m/s 753 mmHg 91%
    12:00 +10°C° 0.2 mm 5 m/s 753 mmHg 90%
    13:00 +11°C° 0.1 mm 4 m/s 754 mmHg 90%
    14:00 +11°C° 0.1 mm 4 m/s 754 mmHg 91%
    15:00 +11°C° 0.1 mm 3 m/s 754 mmHg 92%
    16:00 +10°C° 0.2 mm 3 m/s 755 mmHg 93%
    17:00 +10°C° 0.2 mm 2 m/s 755 mmHg 95%
    18:00 +10°C° 0.2 mm 2 m/s 756 mmHg 96%
    19:00 +9°C° 0.2 mm 2 m/s 756 mmHg 96%
    20:00 +9°C° 0.2 mm 2 m/s 757 mmHg 95%
    21:00 +10°C° 0.2 mm 1 m/s 757 mmHg 95%
    22:00 +10°C° 0 mm 1 m/s 758 mmHg 96%
    23:00 +10°C° 0 mm 1 m/s 758 mmHg 96%

    Mâine, 22 Iulie, Luni

    Timp Temperatura Precipitaţii Vânt Presiune Umiditate
    00:00 +9°C° 0 mm 1 m/s 758 mmHg 97%
    01:00 +9°C° 0 mm 1 m/s 758 mmHg 97%
    02:00 +8°C° 0 mm 0 m/s 759 mmHg 96%
    03:00 +7°C° 0 mm 0 m/s 759 mmHg 96%
    04:00 +8°C° 0 mm 1 m/s 759 mmHg 95%
    05:00 +8°C° 0 mm 1 m/s 759 mmHg 95%
    06:00 +8°C° 0 mm 1 m/s 759 mmHg 94%
    07:00 +8°C° 0 mm 1 m/s 759 mmHg 94%
    08:00 +8°C° 0 mm 1 m/s 759 mmHg 93%
    09:00 +9°C° 0 mm 1 m/s 759 mmHg 93%
    10:00 +9°C° 0 mm 2 m/s 759 mmHg 88%
    11:00 +10°C° 0 mm 2 m/s 760 mmHg 82%
    12:00 +12°C° 0 mm 3 m/s 760 mmHg 77%
    13:00 +12°C° 0 mm 3 m/s 759 mmHg 77%
    14:00 +12°C° 0 mm 3 m/s 759 mmHg 78%
    15:00 +12°C° 0 mm 3 m/s 759 mmHg 78%
    16:00 +10°C° 0 mm 2 m/s 759 mmHg 84%
    17:00 +9°C° 0 mm 2 m/s 759 mmHg 89%
    18:00 +8°C° 0 mm 2 m/s 760 mmHg 94%
    19:00 +8°C° 0 mm 2 m/s 760 mmHg 95%
    20:00 +9°C° 0 mm 1 m/s 760 mmHg 95%
    21:00 +9°C° 0 mm 1 m/s 761 mmHg 96%
    22:00 +9°C° 0 mm 1 m/s 761 mmHg 95%
    23:00 +9°C° 0 mm 1 m/s 761 mmHg 95%

    Poimâine, 23 Iulie, Marţi

    Timp Temperatura Precipitaţii Vânt Presiune Umiditate
    00:00 +9°C° 0 mm 1 m/s 762 mmHg 95%
    01:00 +9°C° 0 mm 1 m/s 762 mmHg 95%
    02:00 +9°C° 0 mm 1 m/s 762 mmHg 95%
    03:00 +8°C° 0 mm 1 m/s 762 mmHg 95%
    04:00 +8°C° 0 mm 1 m/s 762 mmHg 94%
    05:00 +8°C° 0 mm 1 m/s 762 mmHg 94%
    06:00 +8°C° 0 mm 1 m/s 762 mmHg 93%
    07:00 +9°C° 0 mm 1 m/s 762 mmHg 93%
    08:00 +9°C° 0 mm 1 m/s 762 mmHg 92%
    09:00 +9°C° 0 mm 1 m/s 762 mmHg 91%
    10:00 +9°C° 0 mm 0 m/s 762 mmHg 87%
    11:00 +10°C° 0 mm 0 m/s 763 mmHg 84%
    12:00 +11°C° 0 mm 0 m/s 763 mmHg 80%
    13:00 +12°C° 0 mm 1 m/s 762 mmHg 79%
    14:00 +12°C° 0 mm 1 m/s 762 mmHg 78%
    15:00 +13°C° 0 mm 1 m/s 761 mmHg 78%
    16:00 +11°C° 0 mm 1 m/s 762 mmHg 82%
    17:00 +10°C° 0 mm 1 m/s 762 mmHg 87%
    18:00 +9°C° 0 mm 1 m/s 762 mmHg 92%
    19:00 +9°C° 0 mm 1 m/s 762 mmHg 93%
    20:00 +8°C° 0 mm 1 m/s 762 mmHg 93%
    21:00 +8°C° 0 mm 1 m/s 763 mmHg 93%
    22:00 +8°C° 0 mm 1 m/s 763 mmHg 93%
    23:00 +8°C° 0 mm 1 m/s 762 mmHg 93%

    24 Iulie, Miercuri

    Timp Temperatura Precipitaţii Vânt Presiune Umiditate
    00:00 +8°C° 0 mm 1 m/s 762 mmHg 93%
    01:00 +7°C° 0 mm 1 m/s 762 mmHg 93%
    02:00 +7°C° 0 mm 1 m/s 762 mmHg 92%
    03:00 +7°C° 0 mm 1 m/s 762 mmHg 92%
    04:00 +7°C° 0 mm 1 m/s 762 mmHg 92%
    05:00 +7°C° 0 mm 1 m/s 762 mmHg 92%
    06:00 +7°C° 0 mm 1 m/s 762 mmHg 91%
    07:00 +7°C° 0 mm 1 m/s 762 mmHg 90%
    08:00 +7°C° 0 mm 1 m/s 762 mmHg 89%
    09:00 +8°C° 0 mm 1 m/s 762 mmHg 88%
    10:00 +9°C° 0 mm 1 m/s 762 mmHg 83%
    11:00 +11°C° 0 mm 1 m/s 762 mmHg 77%
    12:00 +12°C° 0 mm 1 m/s 761 mmHg 71%
    13:00 +13°C° 0 mm 1 m/s 761 mmHg 70%
    14:00 +13°C° 0 mm 2 m/s 760 mmHg 69%
    15:00 +13°C° 0 mm 2 m/s 760 mmHg 68%
    16:00 +10°C° 0 mm 2 m/s 760 mmHg 75%
    17:00 +9°C° 0 mm 2 m/s 760 mmHg 83%
    18:00 +7°C° 0 mm 3 m/s 760 mmHg 90%
    19:00 +7°C° 0 mm 2 m/s 761 mmHg 92%
    20:00 +7°C° 0 mm 2 m/s 761 mmHg 93%
    21:00 +7°C° 0 mm 2 m/s 761 mmHg 95%
    22:00 +7°C° 0 mm 2 m/s 761 mmHg 95%
    23:00 +7°C° 0 mm 2 m/s 762 mmHg 94%

    25 Iulie, Joi

    Timp Temperatura Precipitaţii Vânt Presiune Umiditate
    00:00 +8°C° 0 mm 1 m/s 762 mmHg 94%
    01:00 +7°C° 0 mm 1 m/s 762 mmHg 93%
    02:00 +7°C° 0 mm 1 m/s 762 mmHg 93%
    03:00 +7°C° 0 mm 1 m/s 762 mmHg 92%
    04:00 +6°C° 0 mm 1 m/s 762 mmHg 90%
    05:00 +6°C° 0 mm 1 m/s 762 mmHg 89%
    06:00 +6°C° 0 mm 1 m/s 762 mmHg 88%
    07:00 +6°C° 0 mm 1 m/s 762 mmHg 86%
    08:00 +7°C° 0 mm 1 m/s 763 mmHg 84%
    09:00 +7°C° 0 mm 1 m/s 763 mmHg 82%
    10:00 +9°C° 0 mm 1 m/s 763 mmHg 77%
    11:00 +10°C° 0 mm 1 m/s 763 mmHg 72%
    12:00 +12°C° 0 mm 1 m/s 763 mmHg 68%
    13:00 +12°C° 0 mm 1 m/s 763 mmHg 67%
    14:00 +13°C° 0 mm 1 m/s 763 mmHg 67%
    15:00 +13°C° 0 mm 1 m/s 763 mmHg 67%
    16:00 +11°C° 0 mm 1 m/s 763 mmHg 74%
    17:00 +10°C° 0 mm 1 m/s 764 mmHg 81%
    18:00 +8°C° 0 mm 1 m/s 764 mmHg 87%
    19:00 +8°C° 0 mm 1 m/s 764 mmHg 87%
    20:00 +7°C° 0 mm 1 m/s 765 mmHg 87%
    21:00 +7°C° 0 mm 1 m/s 765 mmHg 88%
    22:00 +7°C° 0 mm 1 m/s 765 mmHg 88%
    23:00 +6°C° 0 mm 1 m/s 765 mmHg 88%

    26 Iulie, Vineri

    Timp Temperatura Precipitaţii Vânt Presiune Umiditate
    00:00 +6°C° 0 mm 1 m/s 766 mmHg 88%
    01:00 +6°C° 0 mm 1 m/s 766 mmHg 88%
    02:00 +6°C° 0 mm 1 m/s 766 mmHg 87%
    03:00 +6°C° 0 mm 1 m/s 766 mmHg 87%
    04:00 +6°C° 0 mm 1 m/s 766 mmHg 87%
    05:00 +5°C° 0 mm 1 m/s 766 mmHg 87%
    06:00 +5°C° 0 mm 1 m/s 766 mmHg 86%
    07:00 +6°C° 0 mm 1 m/s 766 mmHg 85%
    08:00 +6°C° 0 mm 1 m/s 766 mmHg 84%
    09:00 +7°C° 0 mm 1 m/s 766 mmHg 83%
    10:00 +9°C° 0 mm 1 m/s 766 mmHg 77%
    11:00 +11°C° 0 mm 1 m/s 766 mmHg 71%
    12:00 +12°C° 0 mm 1 m/s 765 mmHg 65%
    13:00 +12°C° 0 mm 2 m/s 765 mmHg 66%
    14:00 +12°C° 0 mm 2 m/s 765 mmHg 67%
    15:00 +12°C° 0 mm 2 m/s 764 mmHg 68%
    16:00 +10°C° 0 mm 2 m/s 764 mmHg 75%
    17:00 +8°C° 0 mm 2 m/s 764 mmHg 82%
    18:00 +6°C° 0 mm 2 m/s 765 mmHg 89%
    19:00 +6°C° 0 mm 2 m/s 765 mmHg 89%
    20:00 +7°C° 0 mm 1 m/s 765 mmHg 90%
    21:00 +7°C° 0 mm 1 m/s 765 mmHg 90%
    22:00 +7°C° 0 mm 1 m/s 765 mmHg 90%
    23:00 +6°C° 0 mm 1 m/s 765 mmHg 89%
    Arată mai mult